Time,TemperatureF,DewpointF,PressureIn,WindDirection,WindDirectionDegrees,WindSpeedMPH,WindSpeedGustMPH,Humidity,HourlyPrecipIn,Conditions,Clouds,dailyrainin,SoftwareType,DateUTC
2013-01-19 00:02:00,41.0,37.0,-100.00,North,-999,-999.0,-999.0,86,-99.99,,,-99.99,,2013-01-19 08:02:00,
2013-01-19 00:53:00,40.0,35.0,-100.00,North,-999,-999.0,-999.0,85,-99.99,,,-99.99,,2013-01-19 08:53:00,
2013-01-19 01:02:00,40.0,35.0,-100.00,North,-999,-999.0,-999.0,85,-99.99,,,-99.99,,2013-01-19 09:02:00,
2013-01-19 02:32:00,38.0,34.0,-100.00,North,-999,-999.0,-999.0,85,-99.99,,,-99.99,,2013-01-19 10:32:00,
2013-01-19 03:02:00,38.0,34.0,-100.00,East,90,2.0,6.0,85,-99.99,,,-99.99,,2013-01-19 11:02:00,
2013-01-19 06:02:00,36.0,32.0,-100.00,SE,135,2.0,7.0,87,-99.99,,,-99.99,,2013-01-19 14:02:00,
2013-01-19 07:03:00,35.0,31.0,-100.00,SE,135,2.0,9.0,86,-99.99,,,-99.99,,2013-01-19 15:03:00,
2013-01-19 10:36:00,46.0,36.0,-100.00,SE,135,2.0,4.0,67,-99.99,,,-99.99,,2013-01-19 18:36:00,
2013-01-19 12:36:00,51.0,41.0,-100.00,South,180,1.0,4.0,69,-99.99,,,-99.99,,2013-01-19 20:36:00,
2013-01-19 14:51:00,54.0,42.0,-100.00,South,180,0.0,2.0,62,-99.99,,,-99.99,,2013-01-19 22:51:00,
2013-01-19 16:51:00,47.0,42.0,-100.00,North,0,0.0,1.0,83,-99.99,,,-99.99,,2013-01-20 00:51:00,
2013-01-19 17:21:00,45.0,42.0,-100.00,North,-999,0.0,0.0,89,-99.99,,,-99.99,,2013-01-20 01:21:00,
2013-01-19 18:14:00,45.0,42.0,-100.00,North,-999,0.0,0.0,89,-99.99,,,-99.99,,2013-01-20 02:14:00,
2013-01-19 18:44:00,43.0,41.0,-100.00,North,0,1.0,1.0,91,-99.99,,,-99.99,,2013-01-20 02:44:00,
2013-01-19 21:03:00,43.0,39.0,-100.00,SE,135,2.0,7.0,86,-99.99,,,-99.99,,2013-01-20 05:03:00,
2013-01-19 21:51:00,42.0,37.0,-100.00,NE,45,1.0,4.0,82,-99.99,,,-99.99,,2013-01-20 05:51:00,
2013-01-19 22:02:00,42.0,38.0,-100.00,East,90,4.0,8.0,84,-99.99,,,-99.99,,2013-01-20 06:02:00,
2013-01-19 22:21:00,41.0,36.0,-100.00,East,90,3.0,7.0,82,-99.99,,,-99.99,,2013-01-20 06:21:00,
2013-01-19 22:33:00,42.0,37.0,-100.00,East,90,1.0,5.0,82,-99.99,,,-99.99,,2013-01-20 06:33:00,
2013-01-19 22:42:00,42.0,37.0,-100.00,NE,45,1.0,4.0,82,-99.99,,,-99.99,,2013-01-20 06:42:00,
2013-01-19 23:12:00,41.0,36.0,-100.00,East,90,3.0,7.0,82,-99.99,,,-99.99,,2013-01-20 07:12:00,